Training

Spin Video     https://www.youtube.com/watch?v=Vj8vdWBMePM&list=UULpWoZCi_X3hPwW6J_RsFEg     … [Read More...]

Weather

METAR FOR KCHA (Issued: Sun, November 23rd 2014 2:53 PM UTC):
KCHA 231453Z 36007KT 1SM +RA BR BKN007 OVC015 10/09 A2996 RMK AO2 SFC VIS 2 RAB1356 CIG 004V010 SLP144 P0008 60014 T01000089 58019

Accomplishments

Marvin Mueller

Congratulations to Marvin Mueller our newest private pilot. Marvin passed his check ride on Friday March 8th. … [Read More...]

Congrats to Randy Sexton

Congratulations to Randy Sexton on becoming our newest Private Pilot at Hixson Aviation. Randy completed his checkride on Monday, March 4, 2013. … [Read More...]

Dallas Bay Skypark - 1A0